Weather History for KBFI - December, 2013

Change the Weather History Date:

Tuesday, December 24, 2013

  Actual Average (KSEA) Record (KSEA)
Temperature  
Mean Temperature 42 °F 40 °F  
Max Temperature 48 °F 45 °F 62 °F (2005)
Min Temperature 36 °F 35 °F 16 °F (1948)
Degree Days  
Heating Degree Days 22 25  
Month to date heating degree days 585  
Since 1 July heating degree days 1768  
Cooling Degree Days 0 0  
Month to date cooling degree days 0  
Year to date cooling degree days 189  
Moisture  
Dew Point 36 °F    
Average Humidity 80    
Maximum Humidity 89    
Minimum Humidity 68    
Precipitation  
Precipitation 0.00 in 0.17 in 0.75 in (1980)
Month to date precipitation 4.20  
Year to date precipitation 36.34  
Snow  
Snow 0.00 in - 2.60 in (2008)
Month to date snowfall  
Since 1 July snowfall  
Snow Depth -    
Sea Level Pressure  
Sea Level Pressure 30.58 in    
Wind  
Wind Speed 2 mph (SSE)    
Max Wind Speed 6 mph    
Max Gust Speed -    
Visibility 10 miles    
Events      
T = Trace of Precipitation, MM = Missing Value Source: NWS Daily Summary

Daily Weather History Graph

Daily Weather History Graph

Search for Another Location

Airport or City:

Trip Planner

Search our weather history database for the weather conditions in past years. The results will help you decide how hot, cold, wet, or windy it might be!

Date:

Astronomy

Dec. 24, 2013 Rise Set
Actual Time 7:55 AM PST 4:22 PM PST
Civil Twilight 7:19 AM PST 4:58 PM PST
Nautical Twilight 6:40 AM PST 5:37 PM PST
Astronomical Twilight 6:02 AM PST 6:15 PM PST
Moon No Moon Rise 11:24 AM PST (12/24)
Length of Visible Light 9h 38m
Length of Day
8h 26m
Waning Gibbous, 57% of the Moon is Illuminated
Dec 24
Waning Gibbous
Dec 25
Last Quarter
Jan 1
New
Jan 7
First Quarter
Jan 15
Full

Hourly Weather History & Observations

Time (PST) Temp. Windchill Dew Point Humidity Pressure Visibility Wind Dir Wind Speed Gust Speed Precip Events Conditions
12:53 AM 45.0 °F 41.8 °F 39.0 °F 80% 30.53 in 10.0 mi SE 5.8 mph - N/A   Overcast
1:53 AM 45.0 °F 43.5 °F 37.9 °F 76% 30.55 in 10.0 mi SSE 3.5 mph - N/A   Overcast
2:41 AM 42.8 °F 40.1 °F 37.4 °F 81% 30.56 in 10.0 mi SE 4.6 mph - N/A   Scattered Clouds
2:53 AM 43.0 °F 40.3 °F 37.0 °F 80% 30.56 in 10.0 mi SE 4.6 mph - N/A   Clear
3:53 AM 42.1 °F - 36.0 °F 79% 30.57 in 10.0 mi Calm Calm - N/A   Clear
4:53 AM 39.9 °F - 35.1 °F 83% 30.59 in 10.0 mi Calm Calm - N/A   Partly Cloudy
5:53 AM 39.9 °F - 36.0 °F 86% 30.61 in 10.0 mi Calm Calm - N/A   Mostly Cloudy
6:15 AM 39.2 °F - 35.6 °F 87% 30.61 in 10.0 mi Calm Calm - N/A   Mostly Cloudy
6:53 AM 39.0 °F - 35.1 °F 86% 30.61 in 10.0 mi Calm Calm - N/A   Partly Cloudy
7:46 AM 39.2 °F - 35.6 °F 87% 30.61 in 10.0 mi Calm Calm - N/A   Mostly Cloudy
7:53 AM 39.9 °F - 36.0 °F 86% 30.61 in 10.0 mi Calm Calm - N/A   Mostly Cloudy
8:51 AM 39.2 °F - 35.6 °F 87% 30.62 in 10.0 mi Calm Calm - N/A   Mostly Cloudy
8:53 AM 39.9 °F - 36.0 °F 86% 30.62 in 10.0 mi Calm Calm - N/A   Mostly Cloudy
9:53 AM 42.1 °F - 37.9 °F 85% 30.63 in 10.0 mi Calm Calm - N/A   Mostly Cloudy
10:53 AM 46.0 °F - 39.0 °F 76% 30.62 in 10.0 mi Calm Calm - N/A   Mostly Cloudy
11:53 AM 46.9 °F - 39.0 °F 74% 30.61 in 10.0 mi Calm Calm - N/A   Overcast
12:53 PM 46.9 °F - 39.0 °F 74% 30.60 in 10.0 mi Calm Calm - N/A   Mostly Cloudy
1:53 PM 48.9 °F - 39.0 °F 69% 30.58 in 10.0 mi NNW 4.6 mph - N/A   Scattered Clouds
2:53 PM 46.9 °F - 37.0 °F 68% 30.59 in 10.0 mi NW 3.5 mph - N/A   Scattered Clouds
3:53 PM 46.0 °F 44.8 °F 36.0 °F 68% 30.58 in 10.0 mi NW 3.5 mph - N/A   Partly Cloudy
4:53 PM 44.1 °F - 36.0 °F 73% 30.57 in 10.0 mi Calm Calm - N/A   Clear
5:53 PM 43.0 °F - 36.0 °F 76% 30.57 in 10.0 mi Calm Calm - N/A   Partly Cloudy
6:53 PM 41.0 °F - 35.1 °F 79% 30.56 in 10.0 mi Calm Calm - N/A   Clear
7:53 PM 42.1 °F - 36.0 °F 79% 30.57 in 10.0 mi Calm Calm - N/A   Scattered Clouds
8:53 PM 41.0 °F - 36.0 °F 82% 30.56 in 10.0 mi Calm Calm - N/A   Scattered Clouds
9:53 PM 39.9 °F - 35.1 °F 83% 30.55 in 10.0 mi Calm Calm - N/A   Partly Cloudy
10:53 PM 37.0 °F - 33.1 °F 86% 30.55 in 10.0 mi Calm Calm - N/A   Clear
11:53 PM 36.0 °F - 33.1 °F 89% 30.55 in 8.0 mi Calm Calm - N/A   Mostly Cloudy